Location: *
(28.3744°N, 81.5492°W)
Time: 04:00:23
(UTC+00:00)

Cosmos 1300 - Pass Details

Date: 15 June 2025
Orbit: 392 x 393 km, 82.5° (Epoch: 11 July)

Event Time Altitude Azimuth Distance (km) Brightness Sun altitude
Rises 02:23:08 0° 347° (NNW) 2,303 6.9 -22.0°
Reaches altitude 10° 02:25:11 10° 340° (NNW) 1,441 5.9 -22.3°
Enters shadow 02:27:51 43° 288° (WNW) 572 3.3 -22.7°
